Terminal Aerodrome Forecast
Issued by NWS Atlanta, GA

Home | Current Version | Previous Version | Text Only | Print | Product List | Glossary On
Versions: 1 2 3 4 5 6 7 8 9 10 11 12 13 14 15 16 17 18 19 20 21 22 23 24 25 26 27 28 29 30 31 32 33 34 35 36 37 38 39 40 41 42 43
410
FTUS42 KFFC 280732 AAA
TAFATL
TAF AMD
KATL 280732Z 2808/2912 22008KT P6SM VCSH SCT040 BKN100
      TEMPO 2809/2813 5SM -TSRA BKN035CB
     FM281300 26007KT P6SM BKN012
     FM281700 27010KT P6SM BKN045 PROB30 2817/2821 5SM TSRA BKN035CB
     FM282200 28008KT P6SM SCT050
     FM290200 32004KT P6SM SCT250=

USA.gov is the U.S. government's official web portal to all federal, state and local government web resources and services.